Showing default

FLOCK 4BE 17, 60492

Orbit data source: Space-Track

FLOCK 4BE 17, 60492 is a payload satellite owned by Planet (US) in SSO that was launched on Fri, 16 Aug 2024 UTC via an FALCON 9 launch vehicle from the Air Force Western Test Range (AFWTR). Payload-class satellites include a variety of spacecraft equipped with specific instruments for various scientific and technological missions. These include communications satellites like Starlink; space stations such as the ISS; scientific satellites like the Hubble; Earth observation satellites from companies like Planet Labs, Umbra, and HawkEye 360; GPS; miniature CubeSats for education and research; and military/defense satellites.

Loading next visibility...
Identifier
60492, 2024-149AA
Orbit
SSO
Country
Flag of USUS
Related business
Manufacturer
Planet
Mission
Operational Commercial Imaging
Bus & Motor
CUBESAT 3U, Unknown motor
Mass
5.7 kg wet, 5.7 kg dry
Launch date (UTC)
2024-08-16 (2 years ago)
Launch vehicle
FALCON 9
Launch site
Air Force Western Test Range (AFWTR)
Object type
Payload
Rocket body
Debris
Shape & HBR
Box + 2 Pan, 1.0 m
Radar Cross Section
0.072 m², Medium (>0.1 m² and < 1m²)

Expand to show TLE details & history
Last TLE update: 17 hours ago

TLE from 17 hours ago
0 FLOCK 4BE 17
1 60492U 24149AA  26171.21006281  .00012363  00000-0  31331-3 0  9997
2 60492  97.3770 254.6033 0002378 220.8171 139.2897 15.39855558102725
Epoch: 2026-06-20T05:02Z
TLE epoch observation values (Epoch: 2026-06-20T05:02:29.426Z)
Latitude
-0.00006°
Longitude
-89.44726°
Altitude
450.885 km
Speed
7.641 km/s
True Right ascension
16h 58m 24s
True Declination
0° 00' 00"
Sunlit
Object was in full shadow at epoch
Visualization orbit readout
Latitude
Unknown
Longitude
Unknown
Altitude
Unknown
Speed
Unknown
Apparent Right ascension
Unknown
Apparent Declination
Unknown
Sunlit
N/A
Visualization observer readout
Local Sidereal Time
08:43:00
Azimuth
Unknown
Elevation
Unknown
Doppler factor
Unknown
Orbital elements
Apogee altitude
445.096 km
Perigee altitude
441.852 km
Semi-major axis
6,821.611 km
Eccentricity
0.00024
Inclination
97.377°
RAAN
254.6033°
Arg. of periapsis
220.8171°
True anomaly
139.30747°
Mean anomaly
139.2897°
Eccentric anomaly
139.29859°
Mean motion
3.85223 °/min
Orbital period
93.45 mins
BSTAR
0.00031331
Loading maneuver chart data...
Computing Atmospheric mass density...
Loading historical data...
Loading historical data...
Loading historical data...
Loading historical data...
Loading historical data...
Loading historical data...
Loading historical data...

Documentation

Showing up to 5 results
|